Αρχική σελίδα
METAR-TAF:

METAR-TAF

Αεροδρόμια :

Johnson County Executive Airport

Olathe, Κάνσας, Ηνωμένες Πολιτείες Αμερικής

γεωγραφικό πλάτος: 38-51-00N, γεωγραφικό μήκος: 094-44-21W, υψόμετρο: 334 μ

Παρών καιρός

Η αναφορά έγινε 6 λεπτά πριν, στις 19:45 UTC
Άνεμος 11 kt από BA
Θερμοκρασία -9°C
Υγρασία 79%
Πίεση 1017 hPa
Ορατότητα: 2.4 χλμ
Αρκετά νέφη σε ύψος 2400 πόδια
Αρκετά νέφη σε ύψος 3700 πόδια
Νεφοσκεπής σε ύψος 6000 πόδια
Ασθενές χιόνι, Αχλής

METAR: KOJC 151945Z 04011KT 1 1/2SM -SN BR BKN024 BKN037 OVC060 M09/M12 A3002 RMK AO2 P0000 T10941117

Χρόνος: 13:51 (19:51 UTC)


TAF: λείπει

Μετεωρολογικές αναφορές και προγνώσεις για περισσότερα από 4000 αεροδρόμια (δελτία METAR και TAF).

Οι διαθέσιμοι σταθμοί απεικονίζονται στο χάρτη με κίτρινες και κόκκινες κουκκίδες.

Μετακινήστε το ποντίκι πάνω από τις κουκκίδες για να δείτε το όνομα του σταθμού.

Στη συνέχεια, κάντε κλικ για να δείτε τις μετεωρολογικές αναφορές και τις προγνώσεις καιρού.

Για να αλλάξετε το χάρτη: κάντε κλικ στα πράσινα κουμπιά με τον μαύρο σταυρό για να ζουμάρετε, στο πράσινο κουμπί με την παύλα για να αφαιρέσετε το ζουμ ή στα πράσινα βέλη για να αντιπαραβάλλετε χάρτες.


METAR-TAF: